This is the latest recevied weather packets stored in our database for station/object DO5DHA-11. If no packets are shown the sender has not sent any weather packets the latest 10 day(s).
| Time | Temp. | Humidity | Pressure | Rain* | Wind** | Luminosity | Snow |
|---|---|---|---|---|---|---|---|
| 1777815544 | 26.67° C | 30% | 1011.7 hPa | 0 mm | - | - | - |
| 1777815244 | 27.22° C | 30% | 1011.7 hPa | 0 mm | - | - | - |
| 1777814944 | 27.22° C | 31% | 1011.7 hPa | 0 mm | - | - | - |
| 1777814644 | 27.22° C | 31% | 1011.7 hPa | 0 mm | - | - | - |
| 1777814344 | 26.67° C | 31% | 1011.9 hPa | 0 mm | - | - | - |
| 1777814044 | 26.67° C | 32% | 1012 hPa | 0 mm | - | - | - |
| 1777813744 | 26.67° C | 32% | 1012 hPa | 0 mm | - | - | - |
| 1777813444 | 26.11° C | 32% | 1012 hPa | 0 mm | - | - | - |
| 1777813144 | 26.11° C | 32% | 1012 hPa | 0 mm | - | - | - |
| 1777812844 | 26.67° C | 33% | 1012.2 hPa | 0 mm | - | - | - |
| 1777812544 | 26.11° C | 34% | 1012.2 hPa | 0 mm | - | - | - |
| 1777812244 | 26.11° C | 34% | 1012.2 hPa | 0 mm | - | - | - |
| 1777811944 | 25.56° C | 35% | 1012.4 hPa | 0 mm | - | - | - |
| 1777811644 | 25.56° C | 36% | 1012.5 hPa | 0 mm | - | - | - |
| 1777811344 | 25.56° C | 37% | 1012.5 hPa | 0 mm | - | - | - |
| 1777811044 | 25° C | 37% | 1012.5 hPa | 0 mm | - | - | - |
| 1777810745 | 25° C | 37% | 1012.4 hPa | 0 mm | - | - | - |
| 1777810444 | 24.44° C | 38% | 1012.4 hPa | 0 mm | - | - | - |
| 1777810144 | 23.89° C | 38% | 1012.2 hPa | 0 mm | - | - | - |
| 1777809844 | 23.89° C | 39% | 1012.5 hPa | 0 mm | - | - | - |
| 1777809544 | 23.33° C | 41% | 1012.5 hPa | 0 mm | - | - | - |
| 1777809244 | 22.78° C | 41% | 1012.7 hPa | 0 mm | - | - | - |
| 1777808944 | 22.78° C | 41% | 1012.7 hPa | 0 mm | - | - | - |
| 1777808644 | 22.78° C | 40% | 1012.7 hPa | 0 mm | - | - | - |
| 1777808344 | 22.22° C | 40% | 1012.7 hPa | 0 mm | - | - | - |
* Rain latest hour (hover to see other rain measurements)
** Current wind speed in m/s (hover to see current wind gust speed)